Weather past 2 weeks in Port-aux-Francais, Kerguelen Islands

Now
24 °F

Passing clouds.


Feels Like: 6 °F
Forecast: 30 / 37 °F
Wind: 33 mph from Southwest

Location: Port-Aux-Francais Iles Kerguelen

Current Time: Aug 21, 2014 at 6:06:09 AM

Latest Report: Aug 21, 2014 at 5:00 AM


Visibility: 5 mi

Pressure: 29.29 "Hg

Humidity: 89%

Dew point: 21 °F

Location of Port-aux-FrancaisLocation

Historic Weather in Port-aux-Francais — Graph

°F

Port-aux-Francais temperature yesterday

Maximum temperature yesterday: 29 °F (at 3:00 PM)
Minimum temperature yesterday: 27 °F (at 3:00 AM)
Average temperature yesterday: 28 °F

Past Weeks' High & Low Weather Summary

 TemperatureHumidityPressure
High43 °F (Aug 15, 5:00 PM)100% (Aug 9, 10:00 PM)30.05 "Hg (Aug 9, 10:00 PM)
Low18 °F (Aug 11, 8:00 AM)55% (Aug 16, 2:00 PM)28.91 "Hg (Aug 8, 4:00 PM)
Average32 °F84%29.38 "Hg
* Reported Aug 6 4:00 AM — Aug 21 4:00 AM, Port-aux-Francais, Weather by CustomWeather, © 2014

Note: Actual official high and low records may vary slightly from our data, if they occured in-between our weather recording intervals... More about our weather records

Advertising

Port-aux-Francais weather history for previous 24 hours

 ConditionsComfort  
Time TempWeatherWind HumidityBarometerVisibility
4:00 AM
Aug 21
25 °FChilly.31 mph95%29.26 "HgN/A
3:00 AM24 °FCold.30 mph96%29.26 "HgN/A
2:00 AM26 °FChilly.30 mph96%29.26 "HgN/A
1:00 AM26 °FChilly.30 mph95%29.26 "HgN/A
12:00 AM27 °FChilly.30 mph95%29.26 "HgN/A
11:00 PM
Aug 20
28 °FChilly.23 mph95%29.29 "HgN/A
10:00 PM29 °FChilly.32 mph95%29.29 "HgN/A
9:00 PM29 °FChilly.30 mph90%29.32 "HgN/A
8:00 PM29 °FChilly.29 mph91%29.35 "HgN/A
7:00 PM29 °FChilly.28 mph92%29.38 "HgN/A
6:00 PM29 °FChilly.28 mph95%29.41 "HgN/A
5:00 PM29 °FPassing clouds.29 mph97%29.44 "Hg7 mi
4:00 PM29 °FChilly.29 mph98%29.47 "HgN/A
3:00 PM29 °FChilly.31 mph98%29.50 "HgN/A
2:00 PM29 °FPassing clouds.30 mph98%29.54 "Hg5 mi
1:00 PM29 °FChilly.29 mph97%29.55 "HgN/A
12:00 PM29 °FChilly.24 mph98%29.57 "HgN/A
11:00 AM29 °FSnow flurries. Overcast.31 mph97%29.59 "Hg0 mi
10:00 AM28 °FChilly.25 mph97%29.60 "HgN/A
9:00 AM28 °FChilly.29 mph94%29.60 "HgN/A
8:00 AM28 °FChilly.30 mph86%29.59 "HgN/A
7:00 AM28 °FChilly.35 mph85%29.57 "HgN/A
6:00 AM28 °FChilly.33 mph90%29.56 "HgN/A
Weather by CustomWeather, © 2014

See weather overviewHow to use our weather pages